Location: Forst
(46.9333°N, 15.4333°E)
Time: 07:22:45
(UTC+00:00)

Lacrosse 5 rocket - Pass Details

Date: 19 April 2021
Orbit: 460 x 634 km, 57.0° (Epoch: 12 May)

Event Time Altitude Azimuth Distance (km) Brightness Sun altitude
Rises 22:39:49 0° 308° (NW) 2,805 5.5 -31.4°
Reaches altitude 10° 22:42:03 10° 311° (NW) 1,929 4.6 -31.5°
Enters shadow 22:43:40 22° 316° (NW) 1,318 3.6 -31.5°
